Bradford County (N27)
Towanda, PA
Field Elevation: 730
Lat: 41°44.40N  Long: 76°26.83W
CTAF/Unicom Freq: 123.0000
   
     For Weather-by-Phone, call (570) 265-1024
Weather Advisories
8/1/2014 03:40 Z
Altimeter 30.13" Hg
Wind 300° @ 0 KT
Gusts --
Visibility 2 1/2 SM
Ceiling CLR
Temperature 17° C (63° F)
Dewpoint 17° C (63° F)
Relative Humidity 100%
Density Altitude --
Condensation Altitude 700 feet
  Wind and Runways
Indicated Runway = 23
History
 
 
More Info
All DigiWx sites map
NOAA Forecast
 
Airport IQ 5010
(LHV) Lock Haven
(PS81) Robert Packer Hospital
 
about DigiWx
 
FAA Disclaimer: The data displayed is for advisory purposes only and is not to be used for flight planning or operations. For official data, please call (570) 265-1024 to hear the current automated AWOS voice message.
  METAR N27 010340Z AUTO 30000KT 2 1/2SM CLR 17/17 A3013